PDT,Max TemperatureF,Mean TemperatureF,Min TemperatureF,Max Dew PointF,MeanDew PointF,Min DewpointF,Max Humidity, Mean Humidity, Min Humidity, Max Sea Level PressureIn, Mean Sea Level PressureIn, Min Sea Level PressureIn, Max VisibilityMiles, Mean VisibilityMiles, Min VisibilityMiles, Max Wind SpeedMPH, Mean Wind SpeedMPH, Max Gust SpeedMPH,PrecipitationIn, CloudCover, Events, WindDirDegrees
2013-8-1,111,93,77,55,38,28,32,16,6,29.86,29.79,29.70,10,10,9,20,3,,0.00,2,,182
2013-8-2,107,90,73,61,36,28,40,16,7,29.85,29.79,29.72,10,10,10,7,5,,0.00,5,,143
2013-8-3,106,90,75,47,39,31,30,16,8,29.89,29.82,29.75,10,10,10,15,5,17,0.00,3,,262
2013-8-4,109,93,78,67,43,23,66,22,8,29.90,29.83,29.75,10,10,10,17,5,,0.00,,,166
2013-8-5,105,88,73,69,51,32,59,27,11,29.91,29.84,29.78,10,10,10,16,7,20,0.00,5,,131
2013-8-6,107,90,75,70,55,23,74,38,5,29.93,29.87,29.81,10,10,10,18,5,24,0.00,1,,153
2013-8-7,109,92,75,41,27,13,21,11,4,29.94,29.87,29.81,10,10,10,20,8,22,0.00,3,,262
2013-8-8,109,92,77,40,30,20,23,12,5,29.87,29.80,29.71,10,10,4,22,7,,0.00,1,,265
2013-8-9,106,90,75,38,29,21,23,12,5,29.83,29.79,29.75,10,10,10,22,7,18,0.00,0,,244
2013-8-10,102,86,73,39,30,20,27,13,7,29.91,29.85,29.80,10,10,9,13,7,,0.00,0,,221
2013-8-11,104,88,73,43,35,27,28,16,8,29.91,29.84,29.75,10,10,10,12,6,,0.00,,,213
2013-8-12,108,89,71,45,38,31,39,17,7,29.87,29.81,29.74,10,10,10,10,5,,0.00,0,,219
2013-8-13,108,90,73,62,52,38,57,30,10,29.91,29.83,29.77,10,10,9,8,3,,0.00,1,,142
2013-8-14,107,90,73,71,56,45,85,37,12,29.89,29.81,29.73,10,10,10,10,4,,0.00,1,,107
2013-8-15,109,94,79,72,56,38,64,30,13,29.87,29.81,29.74,10,10,10,10,4,,0.00,2,,171
2013-8-16,111,98,84,56,48,36,34,19,13,29.86,29.80,29.73,10,10,6,14,7,,0.00,1,,204
2013-8-17,113,96,82,67,59,49,58,32,16,29.86,29.77,29.67,10,10,10,7,3,,0.00,2,,144
2013-8-18,109,98,88,63,59,52,40,29,19,29.83,29.76,29.68,10,10,6,10,7,,0.00,,,123
2013-8-19,105,94,82,69,61,52,61,36,20,29.88,29.80,29.73,10,10,9,9,3,,0.00,5,,217
2013-8-20,111,96,80,68,52,38,54,26,11,29.83,29.77,29.69,10,10,10,14,6,,0.00,2,,229
2013-8-21,111,94,80,65,58,48,58,31,16,29.84,29.78,29.68,10,10,9,15,7,,0.00,2,,132
2013-8-22,109,95,82,76,65,56,76,42,20,29.86,29.78,29.70,10,8,0,33,8,51,0.00,3,Thunderstorm,121
2013-8-23,105,92,82,66,64,61,54,40,26,29.84,29.75,29.66,10,10,10,10,6,,0.00,3,,152
2013-8-24,100,88,75,79,71,66,82,63,44,29.88,29.80,29.73,10,8,0,32,12,41,0.00,3,Rain-Thunderstorm,105
2013-8-25,89,81,75,76,72,68,89,77,61,29.95,29.92,29.86,10,9,0,29,5,34,0.00,3,Rain,20
2013-8-26,91,82,73,75,73,69,100,82,50,29.99,29.92,29.84,10,8,2,9,5,,0.00,5,Rain,304
2013-8-27,100,88,77,74,70,67,84,57,34,29.85,29.78,29.70,10,10,9,10,4,,0.00,1,,243
2013-8-28,105,93,82,74,67,60,65,43,24,29.86,29.77,29.72,10,10,4,25,7,32,0.00,2,,220
2013-8-29,91,86,81,77,75,72,85,72,57,30.00,29.95,29.86,10,10,10,25,8,,0.00,5,Thunderstorm,165
2013-8-30,96,88,80,77,73,70,85,64,43,30.02,29.96,29.89,10,10,10,7,4,,0.00,3,,140
2013-8-31,105,94,84,74,69,65,69,48,29,29.93,29.85,29.74,10,9,0,23,7,31,0.00,3,Rain,238